Regional Weather Roundup
Issued by NWS

Home | Current Version | Previous Version | Graphics & Text | Print | Product List | Glossary On
Versions: 1 2 3 4 5 6 7 8 9 10 11 12 13 14 15 16 17 18 19 20 21 22 23 24 25 26 27 28 29 30 31 32 33 34 35 36 37 38 39 40 41 42 43 44 45 46 47 48 49 50
000
ASUS45 KTFX 031010
RWRMT
MONTANA REGIONAL WEATHER ROUNDUP
NATIONAL WEATHER SERVICE GREAT FALLS MT
400 AM MDT WED JUN 03 2015

NOTE: "FAIR" INDICATES FEW OR NO CLOUDS BELOW 12000 FEET WITH NO
SIGNIFICANT WEATHER AND/OR OBSTRUCTIONS TO VISIBILITY.

MTZ001>007-043-031100-
WEST OF THE DIVIDE

CITY           SKY/WX    TMP DP  RH WIND       PRES   REMARKS
KALISPELL      PTSUNNY   46  46 100 CALM      29.99S
MISSOULA       PTCLDY    49  47  93 CALM      30.02S
BUTTE          CLEAR     39  37  92 SE5       30.05F
MULLAN PASS    CLOUDY    41  37  86 SW6       30.04S
$$

MTZ008-052>055-031100-
SOUTHWEST MONTANA

CITY           SKY/WX    TMP DP  RH WIND       PRES   REMARKS
BOZEMAN        MOCLDY    50  48  93 CALM      30.02F
DILLON         PTCLDY    46  41  82 SW3       30.03S
W YELLOWSTONE  CLEAR     34  34 100 W3        30.09R
$$

MTZ009-010-012-014-046-048-049-054-031100-
EAST SLOPES AND CENTRAL MONTANA

CITY           SKY/WX    TMP DP  RH WIND       PRES   REMARKS
CUT BANK       FOG       43  43 100 S3        29.96S VSB 1/4
GREAT FALLS    PTCLDY    46  45  96 SW6       29.97R
MALMSTROM AFB  MOCLDY    50  48  95 SW6       29.97S
HELENA         CLOUDY    54  46  74 CALM      30.00R
$$

MTZ011-013-016-021-045-047-050-051-031100-
NORTH CENTRAL MONTANA

CITY           SKY/WX    TMP DP  RH WIND       PRES   REMARKS
HAVRE          CLOUDY    51  49  92 CALM      29.94F
LEWISTOWN      MOCLDY    49  45  86 E3        29.98F
N BAR RANCH    FAIR      43  41  93 NW6       30.01F
$$

MTZ017>020-022>027-061-062-031100-
NORTHEAST MONTANA

CITY           SKY/WX    TMP DP  RH WIND       PRES   REMARKS
GLASGOW        CLOUDY    54  52  93 SE8       29.97R
JORDAN           N/A     50  49  96 E5        29.98S
SIDNEY         PTCLDY    52  46  82 NW9       29.97F
WOLF POINT     PTCLDY    49  47  93 CALM      30.00R FOG
$$

MTZ028>42-056>058-031100-
SOUTHCENTRAL AND SOUTHEAST MONTANA

CITY           SKY/WX    TMP DP  RH WIND       PRES   REMARKS
BAKER          CLOUDY    53  48  83 N12       29.98R
BILLINGS       PTCLDY    51  50  96 SW5       29.98S
LIVINGSTON     MOCLDY    50  45  83 W6        30.02S
MILES CITY     PTCLDY    51  49  92 NE9       29.97S
$$

REGIONAL REPORTS...DAKOTAS

CITY           SKY/WX    TMP DP  RH WIND       PRES   REMARKS
WILLISTON      MOCLDY    51  49  92 NE7       29.98S
MINOT          CLOUDY    48  45  89 N8        29.94R
DICKINSON      CLOUDY    53  49  86 N13       29.91S
BEACH          CLOUDY    52  52 100 N7        29.98R
CROSBY         FAIR      46  46 100 NE3       30.00F
WATFORD CITY   CLOUDY    50  48  93 NE6       29.96R
BISMARCK       CLOUDY    55  52  89 N17G25    29.85R
GRAND FORKS    CLOUDY    61  59  93 N14       29.74R
FARGO          CLOUDY    65  61  87 S10       29.69R
BUFFALO SD       N/A     53  49  86 NW14      29.89R
RAPID CITY     CLEAR     55  50  83 N21       29.92R
$$

REGIONAL REPORTS...WYOMING/IDAHO/WASHINGTON

CITY           SKY/WX    TMP DP  RH WIND       PRES   REMARKS
GILLETTE       CLOUDY    53  51  93 CALM      30.00F
SHERIDAN       PTCLDY    48  44  86 S3        29.99S
BUFFALO WY     CLOUDY    50  45  83 CALM      30.02F
CODY           PTCLDY    48  43  81 CALM      30.02S
YELLOWSTONE LA   N/A     31  30  96 NW5       30.14S
IDAHO FALLS    PTCLDY    48  41  76 SE5       30.00S
SALMON           N/A     48  43  81 CALM      30.01F
BOISE          CLEAR     52  48  86 CALM      29.97F
SPOKANE        MOCLDY    51  41  68 S9        29.96S
$$

REGIONAL REPORTS...ALBERTA

CITY           SKY/WX    TMP DP  RH WIND       PRES   REMARKS
CALGARY        MOCLDY    48  46  93 S10       29.91F
LETHBRIDGE     LGT RAIN  48  48 100 SE6       29.93F
MEDICINE HAT   CLOUDY    52  52 100 SE3       29.95F
$$

REGIONAL REPORTS...SASKATCHEWAN

CITY           SKY/WX    TMP DP  RH WIND       PRES   REMARKS
SWIFT CURRENT  CLOUDY    50  34  53 SE7       29.98S
REGINA         CLOUDY    48  41  76 SE7       30.00S
SASKATOON      CLOUDY    45  37  76 NE7       30.03R
$$



USA.gov is the U.S. government's official web portal to all federal, state and local government web resources and services.